Weather in Nelson Bay

Australia     32°43′22″S   152°08′36″E
temp.,
°C
wind,
m/s
gust,
m/s
humid.,
%
clouds,
%
prec.,
mm/h
press.,
hPa
HPBL,
m
11 may, tue
tue1101:00+20nnw566387 0.0 1013178
04:00+19nw456692 0.0 1013162
07:00+18w67696 0.0 1015255
10:00+18wsw7875100 0.2 1016395
13:00+22w2458100 0.0 1014379
16:00+21nne336312 0.7 1015146
19:00+21nnw21619 0.3 1017279
22:00+19w4467100 0.3 1018330
12 may, wed
wed1201:00+19wsw556856 0.0 1018360
04:00+18wsw5575100 0.0 1018374
07:00+18wsw447643 0.1 1019467
10:00+18wsw547928 0.9 1019342
13:00+18wsw548723 1.4 1017300
16:00+19wsw017599 2.5 1016164
19:00+19n5583100 0.5 1017364
22:00+19nw33834 1.1 1016279
13 may, thu
thu1301:00+18w55869 0.3 1015308
04:00+17wsw788984 0.4 1014529
07:00+18wsw778388 0.3 1014665
10:00+18wsw66810 0.3 1013447
13:00+20wsw67630 0.0 10111044
16:00+21wnw67570 0.0 1009890
19:00+19wnw713630 0.0 1010506
22:00+18w1014665 0.0 1011653
14 may, fri
fri1401:00+17w1115700 0.0 1011814
04:00+16w1013690 0.0 1011742
07:00+15w913692 0.0 1013577
10:00+17w1012630 0.0 1014830
13:00+18sw89490 0.0 10131677
16:00+18ssw66470 0.0 10131177
19:00+18wsw33420 0.0 1015936
22:00+16w99560 0.0 1016760
15 may, sat
sat1501:00+14w911615 0.0 1016749
04:00+13wnw101365100 0.0 1015681
07:00+13w11136775 0.0 1016814
10:00+14w111461100 0.0 10151001
13:00+17wnw1015522 0.0 10131743
16:00+19wsw12154572 0.0 10122720
19:00+16wsw1314525 0.0 10162159
22:00+14sw1314575 0.0 10181743